Regional Weather Roundup
Issued by NWS

Home | Current Version | Previous Version | Text Only | Print | Product List | Glossary On
Versions: 1 2 3 4 5 6 7 8 9 10 11 12 13 14 15 16 17 18 19 20 21 22 23 24 25 26 27 28 29 30 31 32 33 34 35 36 37 38 39 40 41 42 43 44 45 46 47 48 49 50
000
ASUS45 KBOI 142110
RWRID

IDAHO REGIONAL WEATHER ROUNDUP
NATIONAL WEATHER SERVICE BOISE ID
200 PM MST SUN FEB 14 2016

NOTE: "FAIR" INDICATES FEW OR NO CLOUDS BELOW 12000 FEET
WITH NO SIGNIFICANT WEATHER AND/OR OBSTRUCTIONS TO VISIBILITY

IDZ012-014-142200-
SOUTHWEST IDAHO


CITY           SKY/WX    TMP DP  RH WIND       PRES   REMARKS
BOISE          CLOUDY    47  42  83 N6        30.25F
CALDWELL       CLOUDY    49  42  77 NE3       30.25F
MOUNTAIN HOME  CLOUDY    46  42  83 NW6       30.24F
$$

IDZ016-017-142200-
SOUTHCENTRAL IDAHO


CITY           SKY/WX    TMP DP  RH WIND       PRES   REMARKS
BURLEY         CLOUDY    42  37  82 W20G26    30.20F
JEROME         CLOUDY    41  37  86 SW17      30.22F
TWIN FALLS     CLOUDY    43  39  86 W15       30.23F
$$

IDZ019>023-142200-
SOUTHEAST IDAHO


CITY           SKY/WX    TMP DP  RH WIND       PRES   REMARKS
IDAHO FALLS    CLOUDY    34  31  88 SW26G35   30.12S WCI  21
POCATELLO      CLOUDY    37  34  89 SW21      30.19F WCI  26
REXBURG        CLOUDY    32  32 100 SW17      30.12F FOG     WCI  21
$$

IDZ006-010-011-018-031-032-142200-
CENTRAL IDAHO MOUNTAINS


CITY           SKY/WX    TMP DP  RH WIND       PRES   REMARKS
MCCALL         LGT SNOW  33  32  96 CALM      30.17F FOG
HAILEY         MOSUNNY   37  30  75 SE10      30.17F WCI  30
STANLEY          N/A     34  30  85 E3        30.18S
SALMON         CLOUDY    37  28  70 NE3       30.09S
CHALLIS        CLOUDY    41  28  60 SE5       30.11F
$$

IDZ002-004-006-007-026-142200-
NORTHERN IDAHO


CITY           SKY/WX    TMP DP  RH WIND       PRES   REMARKS
LEWISTON       LGT RAIN  49  42  77 S8        30.14F
LOWELL           N/A     47  41  80 CALM      30.18S
COEUR D`ALENE  CLOUDY    43  37  81 CALM      30.07F
MULLAN PASS    FOG       31  30  96 NW9G23    30.03S VSB 1/4 WCI  23
$$



USA.gov is the U.S. government's official web portal to all federal, state and local government web resources and services.